Home   Weather   Tokyo   Past weeks

Flag for Japan Past Weather in Tokyo, Japan — Yesterday and Last 2 Weeks

Now
47 °F

Cool.


Feels Like: 47 °F
Forecast: 47 / 57 °F
Wind: 1 mph from Southwest

Location: Tokyo

Current Time: Nov 18, 2017 at 8:23:27 am

Latest Report: Nov 18, 2017 at 7:00 am


Visibility: N/A

Pressure: 29.92 "Hg

Humidity: 75%

Dew Point: 40 °F

Location of TokyoLocation

Past Weather in Tokyo — Graph

°F

Tokyo Temperature Yesterday

Maximum temperature yesterday: 55 °F (at 1:00 pm)
Minimum temperature yesterday: 43 °F (at 7:00 am)
Average temperature yesterday: 50 °F

High & Low Weather Summary for the Past Weeks

 TemperatureHumidityPressure
High71 °F (Nov 4, 1:00 pm)100% (Nov 13, 11:00 pm)30.37 "Hg (Nov 13, 11:00 pm)
Low43 °F (Nov 17, 7:00 am)33% (Nov 11, 5:00 pm)29.62 "Hg (Nov 11, 8:00 am)
Average56 °F67%30.03 "Hg
* Reported Nov 3 7:00 am — Nov 18 7:00 am, Tokyo. Weather by CustomWeather, © 2017

Note: Actual official high and low records may vary slightly from our data, if they occured in-between our weather recording intervals... More about our weather records

Advertising

Tokyo Weather History for the Previous 24 Hours

Scroll right to see more
 ConditionsComfort  
Time TempWeatherWind HumidityBarometerVisibility
7:00 am
Sat, Nov 18
47 °FCool.1 mph75%29.92 "HgN/A
6:00 am47 °FOvercast.3 mph75%29.93 "Hg12 mi
5:00 am47 °FCool.3 mph76%29.92 "HgN/A
4:00 am48 °FCool.3 mph75%29.95 "HgN/A
3:00 am47 °FOvercast.5 mph79%29.98 "Hg12 mi
2:00 am48 °FCool.5 mph75%30.01 "HgN/A
1:00 am49 °FCool.5 mph76%30.05 "HgN/A
12:00 am50 °FCool.6 mph75%30.06 "HgN/A
11:00 pm
Fri, Nov 17
50 °FCool.2 mph84%30.09 "HgN/A
10:00 pm51 °FCool.5 mph76%30.12 "HgN/A
9:00 pm51 °FOvercast.5 mph74%30.13 "Hg12 mi
8:00 pm50 °FCool.5 mph74%30.14 "HgN/A
7:00 pm53 °FCool.8 mph66%30.13 "HgN/A
6:00 pm52 °FOvercast.3 mph65%30.14 "Hg12 mi
5:00 pm53 °FCool.8 mph61%30.13 "HgN/A
4:00 pm53 °FCool.3 mph59%30.13 "HgN/A
3:00 pm54 °FPassing clouds.8 mph55%30.13 "Hg19 mi
2:00 pm55 °FRefreshingly cool.3 mph52%30.12 "HgN/A
1:00 pm55 °FRefreshingly cool.3 mph48%30.12 "HgN/A
12:00 pm54 °FPassing clouds.7 mph47%30.15 "Hg19 mi
11:00 am53 °FCool.5 mph50%30.17 "HgN/A
10:00 am52 °FCool.3 mph55%30.20 "HgN/A
9:00 am47 °FPartly sunny.5 mph60%30.22 "Hg19 mi
8:00 am44 °FQuite cool.5 mph68%30.21 "HgN/A
Weather by CustomWeather, © 2017

See weather overview